Miscellaneous Local Product
Issued by NWS North Platte, NE

Home | Current Version | Previous Version | Graphics & Text | Print | Product List | Glossary On
Versions: 1 2 3 4 5 6 7 8 9 10 11 12 13 14 15 16 17 18 19 20 21 22 23 24 25 26 27 28 29 30 31 32 33 34 35 36 37 38 39 40 41 42 43 44 45 46 47 48 49 50
000
AXUS43 KLBF 160810
MISLBF


WESTERN AND NORTH CENTRAL NEBRASKA HOURLY WEATHER ROUNDUP
NATIONAL WEATHER SERVICE NORTH PLATTE NE
200 AM CST MON JAN 16 2017

NOTE: "FAIR" INDICATES FEW OR NO CLOUDS BELOW 12,000 FEET WITH NO
SIGNIFICANT WEATHER AND/OR OBSTRUCTIONS TO VISIBILITY.

NOTE: STATIONS NOT REPORTING VARIABLES SUCH AS SKY/WEATHER OR
PRESSURE ARE PROVIDED BY RAWS AND APRS NETWORKS AND ARE NOT UNDER
NATIONAL WEATHER SERVICE QUALITY CONTROL.

...OBSERVATIONS IN AND NEAR THE EASTERN PANHANDLE OF NEBRASKA...

CITY           SKY/WX    TMP DP  RH WIND       PRES   REMARKS
PINE RIDGE     CLOUDY    22  20  92 CALM      30.03S
CHADRON        CLOUDY    24  20  84 W5        30.04R WCI  18
ALLIANCE       CLOUDY    31  26  82 CALM      29.98S
SIDNEY         MIX PCPN  31  28  89 N9        29.95F WCI  23
CRESCENT LAKE    N/A     31  31 100 N5          N/A  WCI  26
$$

...OBSERVATIONS IN NORTHERN NEBRASKA AND FAR SOUTHERN SOUTH DAKOTA...

CITY           SKY/WX    TMP DP  RH WIND       PRES   REMARKS
WINNER         FAIR      20  16  84 W3        30.06S
VALENTINE      CLOUDY    27  23  85 CALM      30.04R
THEDFORD       CLOUDY    32  32  99 CALM      30.01F FOG
AINSWORTH      MIX PCPN  31  27  87 CALM      30.03R
O`NEILL        MIX PCPN  32  31  97 CALM      30.07S
ORD            CLOUDY    31  28  89 E3        30.05S FOG
BROKEN BOW     CLOUDY    32  30  92 CALM      30.02F
BUTTE            N/A     27  22  82 E3          N/A
SARGENT          N/A     31  22  68 SE3         N/A
CHAMBERS         N/A     32  29  90 CALM        N/A
EWING            N/A     30  29  94 CALM        N/A
$$

...OBSERVATIONS IN SOUTHWEST NEBRASKA AND FAR NORTHEAST COLORADO...

CITY           SKY/WX    TMP DP  RH WIND       PRES   REMARKS
HOLYOKE        CLOUDY    34  32  93 N6        29.96F FOG     WCI  29
IMPERIAL       CLOUDY    31  29  92 N7        29.97F FOG     WCI  24
OGALLALA       CLOUDY    33  32  96 CALM      29.98F FOG
NORTH PLATTE   CLOUDY    31  30  96 CALM      30.00F FOG
MCCOOK         CLOUDY    30  30 100 NE6       29.99F WCI  24
LEXINGTON      CLOUDY    31  30  95 NE3       30.02S FOG
STAPLETON        N/A     29  28  95 CALM        N/A
GOTHENBURG       N/A     31  30  94 CALM        N/A
CALLAWAY         N/A     29  28  95 NE3         N/A
$$

...OBSERVATIONS IN CENTRAL LINCOLN COUNTY AREA...

CITY           SKY/WX    TMP DP  RH WIND       PRES   REMARKS
N.P. AIRPORT   CLOUDY    31  30  96 CALM      30.00F FOG
N.P. DOWNTOWN    N/A     30  29  96 CALM        N/A
N.P. SOUTHEAST   N/A     30  29  94 CALM        N/A
N.P. HILLCREST   N/A     31  30  95 CALM        N/A
$$

...SOME OBSERVATIONS FROM AROUND THE REGION...

CITY           SKY/WX    TMP DP  RH WIND       PRES   REMARKS
LARAMIE        CLOUDY    19  16  88 NE3       29.97S
CHEYENNE       CLOUDY    31  22  69 N9        29.96R WCI  23
DENVER         FLURRIES  30  22  72 NW13      29.95S WCI  20
AKRON          LGT SNOW  27  25  92 N8        29.92F FOG     WCI  19
SCOTTSBLUFF    CLOUDY    32  27  81 W3        30.00R
RAPID CITY     CLOUDY    23  11  60 N13       30.03S WCI  11
BISMARCK       CLOUDY    -3  -8  79 NE6       30.06F WCI -15
PIERRE         CLOUDY    10   5  80 CALM      30.08S
SIOUX FALLS    CLOUDY    21  17  84 NE5       30.12S WCI  15
OMAHA          DRIZZLE   33  29  85 E3        30.13S FOG
GRAND ISLAND   FRZ RAIN  30  30 100 E7        30.05F FOG     WCI  23
KANSAS CITY    DRZL/FOG  33  31  92 E12       30.05F VSB 1/2 WCI  24
WICHITA        RAIN      37  37 100 NE13      29.87F FOG     WCI  29
OKLAHOMA CITY  CLOUDY    38  38 100 CALM      29.80R
DALLAS         LGT RAIN  54  54 100 SE5       29.90F
AMARILLO       LGT SNOW  31  30  96 NW6       29.86S FOG     WCI  25
DODGE CITY     FRZ RAIN  31  31 100 NE17      29.83F FOG     WCI  19
HAYS           FLURRIES  32  30  92 NE16      29.91F WCI  21
GOODLAND       FRZ RAIN  30  29  96 N10       29.92F WCI  21
$$




USA.gov is the U.S. government's official web portal to all federal, state and local government web resources and services.